• In Uzbekistan
  • List of Countries
  • For 7 days
  • Water Temperature
  • Satellite Maps
  • Weather Map
  • Weather Widgets
  • user-avatar
    Login

    Hourly Weather Batina

    Today, 4 December, Sunday

    Time Temperature Precipitation Wind Pressure Humidity
    00:00 +5°C° 0 mm 2 mps 669 mmHg 83%
    01:00 +5°C° 0 mm 2 mps 669 mmHg 84%
    02:00 +5°C° 0 mm 2 mps 669 mmHg 86%
    03:00 +5°C° 0 mm 2 mps 669 mmHg 87%
    04:00 +4°C° 0 mm 2 mps 669 mmHg 87%
    05:00 +4°C° 0 mm 2 mps 669 mmHg 87%
    06:00 +4°C° 0 mm 2 mps 669 mmHg 87%
    07:00 +6°C° 0 mm 2 mps 669 mmHg 78%
    08:00 +8°C° 0 mm 2 mps 670 mmHg 70%
    09:00 +10°C° 0 mm 2 mps 671 mmHg 61%
    10:00 +11°C° 0 mm 3 mps 671 mmHg 56%
    11:00 +12°C° 0 mm 4 mps 671 mmHg 51%
    12:00 +13°C° 0 mm 4 mps 671 mmHg 47%
    13:00 +13°C° 0 mm 4 mps 670 mmHg 48%
    14:00 +12°C° 0 mm 4 mps 670 mmHg 49%
    15:00 +12°C° 0 mm 4 mps 670 mmHg 50%
    16:00 +11°C° 0 mm 3 mps 670 mmHg 54%
    17:00 +9°C° 0 mm 3 mps 670 mmHg 58%
    18:00 +8°C° 0 mm 3 mps 670 mmHg 62%
    19:00 +8°C° 0.2 mm 3 mps 670 mmHg 63%
    20:00 +8°C° 0.2 mm 3 mps 670 mmHg 64%
    21:00 +8°C° 0.2 mm 3 mps 671 mmHg 65%
    22:00 +7°C° 0.5 mm 3 mps 671 mmHg 67%
    23:00 +7°C° 0.5 mm 3 mps 671 mmHg 70%

    Tomorrow, 5 December, Monday

    Time Temperature Precipitation Wind Pressure Humidity
    00:00 +7°C° 0.5 mm 3 mps 671 mmHg 72%
    01:00 +7°C° 0.1 mm 3 mps 671 mmHg 74%
    02:00 +7°C° 0.1 mm 2 mps 671 mmHg 75%
    03:00 +7°C° 0.1 mm 2 mps 670 mmHg 77%
    04:00 +7°C° 0.1 mm 2 mps 670 mmHg 78%
    05:00 +7°C° 0.1 mm 2 mps 671 mmHg 79%
    06:00 +7°C° 0.1 mm 2 mps 671 mmHg 79%
    07:00 +8°C° 0.1 mm 3 mps 671 mmHg 76%
    08:00 +9°C° 0.1 mm 3 mps 672 mmHg 72%
    09:00 +9°C° 0.1 mm 3 mps 672 mmHg 68%
    10:00 +10°C° 0 mm 4 mps 672 mmHg 63%
    11:00 +11°C° 0 mm 4 mps 672 mmHg 58%
    12:00 +12°C° 0 mm 4 mps 672 mmHg 53%
    13:00 +12°C° 0 mm 4 mps 672 mmHg 53%
    14:00 +12°C° 0 mm 3 mps 672 mmHg 53%
    15:00 +12°C° 0 mm 3 mps 672 mmHg 54%
    16:00 +10°C° 0 mm 3 mps 672 mmHg 60%
    17:00 +9°C° 0 mm 2 mps 672 mmHg 65%
    18:00 +8°C° 0 mm 2 mps 672 mmHg 71%
    19:00 +7°C° 0 mm 2 mps 672 mmHg 72%
    20:00 +7°C° 0 mm 2 mps 672 mmHg 73%
    21:00 +8°C° 0 mm 1 mps 672 mmHg 73%
    22:00 +8°C° 0 mm 1 mps 672 mmHg 74%
    23:00 +8°C° 0 mm 1 mps 672 mmHg 74%

    Day after tomorrow, 6 December, Tuesday

    Time Temperature Precipitation Wind Pressure Humidity
    00:00 +8°C° 0 mm 1 mps 672 mmHg 74%
    01:00 +8°C° 0 mm 1 mps 672 mmHg 76%
    02:00 +8°C° 0 mm 1 mps 672 mmHg 77%
    03:00 +7°C° 0 mm 1 mps 672 mmHg 79%
    04:00 +7°C° 0 mm 1 mps 672 mmHg 81%
    05:00 +6°C° 0 mm 0 mps 672 mmHg 82%
    06:00 +6°C° 0 mm 0 mps 672 mmHg 84%
    07:00 +7°C° 0 mm 0 mps 673 mmHg 76%
    08:00 +9°C° 0 mm 0 mps 673 mmHg 69%
    09:00 +11°C° 0 mm 0 mps 674 mmHg 62%
    10:00 +12°C° 0 mm 0 mps 674 mmHg 59%
    11:00 +14°C° 0 mm 1 mps 674 mmHg 56%
    12:00 +15°C° 0 mm 1 mps 674 mmHg 53%
    13:00 +14°C° 0 mm 1 mps 674 mmHg 54%
    14:00 +14°C° 0 mm 2 mps 674 mmHg 55%
    15:00 +14°C° 0 mm 2 mps 674 mmHg 57%
    16:00 +13°C° 0 mm 2 mps 674 mmHg 63%
    17:00 +10°C° 0 mm 2 mps 673 mmHg 70%
    18:00 +9°C° 0 mm 2 mps 673 mmHg 76%
    19:00 +9°C° 0 mm 2 mps 674 mmHg 79%
    20:00 +9°C° 0 mm 2 mps 674 mmHg 81%
    21:00 +8°C° 0 mm 2 mps 674 mmHg 83%
    22:00 +8°C° 0.1 mm 2 mps 674 mmHg 84%
    23:00 +8°C° 0.1 mm 2 mps 674 mmHg 86%

    7 December, Wednesday

    Time Temperature Precipitation Wind Pressure Humidity
    00:00 +7°C° 0.1 mm 2 mps 674 mmHg 87%
    01:00 +8°C° 0.1 mm 1 mps 673 mmHg 88%
    02:00 +8°C° 0.1 mm 1 mps 673 mmHg 88%
    03:00 +7°C° 0.1 mm 1 mps 673 mmHg 89%
    04:00 +7°C° 0 mm 1 mps 673 mmHg 89%
    05:00 +7°C° 0 mm 1 mps 673 mmHg 90%
    06:00 +7°C° 0 mm 1 mps 673 mmHg 90%
    07:00 +8°C° 0 mm 1 mps 674 mmHg 84%
    08:00 +9°C° 0 mm 2 mps 675 mmHg 79%
    09:00 +10°C° 0 mm 2 mps 676 mmHg 73%
    10:00 +12°C° 0 mm 2 mps 676 mmHg 69%
    11:00 +13°C° 0 mm 2 mps 676 mmHg 65%
    12:00 +14°C° 0 mm 2 mps 676 mmHg 61%
    13:00 +14°C° 0 mm 2 mps 675 mmHg 62%
    14:00 +12°C° 0 mm 3 mps 675 mmHg 64%
    15:00 +12°C° 0 mm 3 mps 675 mmHg 66%
    16:00 +11°C° 0 mm 3 mps 675 mmHg 72%
    17:00 +10°C° 0 mm 3 mps 675 mmHg 79%
    18:00 +9°C° 0 mm 2 mps 675 mmHg 85%
    19:00 +9°C° 0 mm 3 mps 676 mmHg 86%
    20:00 +9°C° 0 mm 3 mps 676 mmHg 87%
    21:00 +9°C° 0 mm 3 mps 676 mmHg 88%
    22:00 +8°C° 0 mm 3 mps 676 mmHg 88%
    23:00 +8°C° 0 mm 3 mps 676 mmHg 88%

    8 December, Thursday

    Time Temperature Precipitation Wind Pressure Humidity
    00:00 +8°C° 0 mm 2 mps 676 mmHg 88%
    01:00 +8°C° 0 mm 2 mps 676 mmHg 89%
    02:00 +7°C° 0 mm 2 mps 676 mmHg 90%
    03:00 +7°C° 0 mm 2 mps 676 mmHg 91%
    04:00 +7°C° 0 mm 3 mps 676 mmHg 90%
    05:00 +7°C° 0 mm 3 mps 676 mmHg 89%
    06:00 +7°C° 0 mm 3 mps 677 mmHg 88%
    07:00 +8°C° 0 mm 3 mps 677 mmHg 84%
    08:00 +9°C° 0 mm 3 mps 678 mmHg 79%
    09:00 +9°C° 0 mm 3 mps 678 mmHg 75%
    10:00 +10°C° 0 mm 3 mps 678 mmHg 72%
    11:00 +10°C° 0 mm 3 mps 678 mmHg 69%
    12:00 +11°C° 0 mm 3 mps 678 mmHg 66%
    13:00 +11°C° 0 mm 3 mps 677 mmHg 66%
    14:00 +11°C° 0 mm 3 mps 677 mmHg 66%
    15:00 +11°C° 0 mm 3 mps 677 mmHg 66%
    16:00 +10°C° 0 mm 3 mps 677 mmHg 72%
    17:00 +9°C° 0 mm 3 mps 677 mmHg 78%
    18:00 +8°C° 0 mm 3 mps 677 mmHg 83%
    19:00 +8°C° 0 mm 2 mps 678 mmHg 85%
    20:00 +8°C° 0 mm 2 mps 678 mmHg 87%
    21:00 +7°C° 0 mm 2 mps 678 mmHg 89%
    22:00 +7°C° 0.1 mm 2 mps 678 mmHg 89%
    23:00 +7°C° 0.1 mm 2 mps 678 mmHg 89%

    9 December, Friday

    Time Temperature Precipitation Wind Pressure Humidity
    00:00 +7°C° 0.1 mm 2 mps 678 mmHg 89%
    01:00 +7°C° 0 mm 2 mps 678 mmHg 89%
    02:00 +7°C° 0 mm 2 mps 678 mmHg 89%
    03:00 +8°C° 0 mm 1 mps 678 mmHg 90%
    04:00 +8°C° 0.1 mm 1 mps 678 mmHg 90%
    05:00 +8°C° 0.1 mm 1 mps 678 mmHg 91%
    06:00 +7°C° 0.1 mm 1 mps 678 mmHg 92%
    07:00 +8°C° 0.1 mm 1 mps 678 mmHg 87%
    08:00 +9°C° 0.1 mm 1 mps 679 mmHg 82%
    09:00 +11°C° 0.1 mm 1 mps 679 mmHg 77%
    10:00 +12°C° 0 mm 1 mps 679 mmHg 72%
    11:00 +13°C° 0 mm 1 mps 679 mmHg 67%
    12:00 +14°C° 0 mm 1 mps 679 mmHg 61%
    13:00 +14°C° 0 mm 2 mps 679 mmHg 62%
    14:00 +13°C° 0 mm 2 mps 679 mmHg 63%
    15:00 +13°C° 0 mm 2 mps 679 mmHg 63%
    16:00 +12°C° 0 mm 2 mps 678 mmHg 70%
    17:00 +11°C° 0 mm 1 mps 678 mmHg 77%
    18:00 +9°C° 0 mm 1 mps 678 mmHg 84%
    19:00 +9°C° 0 mm 1 mps 678 mmHg 85%
    20:00 +8°C° 0 mm 1 mps 678 mmHg 87%
    21:00 +8°C° 0 mm 1 mps 678 mmHg 88%
    22:00 +7°C° 0 mm 1 mps 678 mmHg 88%
    23:00 +7°C° 0 mm 1 mps 678 mmHg 89%
    Show more